This is the latest recevied weather packets stored in our database for station/object KD8DLP-13. If no packets are shown the sender has not sent any weather packets the latest 10 day(s).
| Time | Temp. | Humidity | Pressure | Rain* | Wind** | Luminosity | Snow |
|---|---|---|---|---|---|---|---|
| 1777844034 | 12.78° C | 67% | 1009.5 hPa | 0 mm | - | 171 W/m² | - |
| 1777843731 | 12.78° C | 66% | 1009.5 hPa | 0 mm | - | 191 W/m² | - |
| 1777843429 | 12.22° C | 68% | 1009.4 hPa | 0 mm | - | 163 W/m² | - |
| 1777843125 | 12.22° C | 68% | 1009.6 hPa | 0 mm | - | 147 W/m² | - |
| 1777842822 | 12.22° C | 68% | 1009.6 hPa | 0 mm | - | 136 W/m² | - |
| 1777842517 | 11.67° C | 69% | 1009.8 hPa | 0 mm | - | 115 W/m² | - |
| 1777842215 | 11.67° C | 69% | 1009.9 hPa | 0 mm | - | 121 W/m² | - |
| 1777841910 | 11.67° C | 70% | 1009.6 hPa | 0 mm | - | 118 W/m² | - |
| 1777841607 | 11.67° C | 69% | 1009.8 hPa | 0 mm | - | 107 W/m² | - |
| 1777841303 | 11.67° C | 70% | 1009.9 hPa | 0 mm | - | 118 W/m² | - |
| 1777841001 | 11.67° C | 71% | 1009.8 hPa | 0 mm | - | 134 W/m² | - |
| 1777840698 | 11.11° C | 72% | 1010 hPa | 0 mm | - | 137 W/m² | - |
| 1777840395 | 11.11° C | 73% | 1009.9 hPa | 0 mm | - | 130 W/m² | - |
| 1777840092 | 11.11° C | 73% | 1010 hPa | 0 mm | - | 121 W/m² | - |
| 1777839790 | 11.11° C | 74% | 1010.2 hPa | 0 mm | - | 113 W/m² | - |
| 1777839488 | 11.11° C | 75% | 1010.4 hPa | 0 mm | - | 123 W/m² | - |
| 1777839185 | 10.56° C | 76% | 1010.5 hPa | 0 mm | - | 135 W/m² | - |
| 1777838882 | 10.56° C | 78% | 1010.4 hPa | 0 mm | - | 124 W/m² | - |
| 1777838578 | 10.56° C | 78% | 1010.6 hPa | 0 mm | - | 148 W/m² | - |
| 1777838275 | 10.56° C | 80% | 1010.7 hPa | 0 mm | - | 148 W/m² | - |
| 1777837972 | 10° C | 80% | 1010.9 hPa | 0 mm | - | 149 W/m² | - |
| 1777837669 | 10° C | 80% | 1011 hPa | 0 mm | - | 84 W/m² | - |
| 1777837365 | 10° C | 80% | 1011.3 hPa | 0 mm | - | 46 W/m² | - |
| 1777837061 | 10° C | 78% | 1011.3 hPa | 0 mm | - | 45 W/m² | - |
| 1777836757 | 10.56° C | 76% | 1011.1 hPa | 0 mm | - | 56 W/m² | - |
* Rain latest hour (hover to see other rain measurements)
** Current wind speed in m/s (hover to see current wind gust speed)